Owensboro, KY

9:06 PM CST on December 07, 2019 (GMT -0600)
Owensboro-Daviess County

Weather History for KOWB - November, 2019

Change the Weather History Date:

Monday, November 11, 2019

  Actual Average Record
Temperature  
Mean Temperature 40 °F -  
Max Temperature 55 °F 55 °F 77 °F (1949)
Min Temperature 24 °F 35 °F 20 °F (1950)
Degree Days  
Heating Degree Days 26    
Moisture  
Dew Point 33 °F    
Average Humidity 87    
Maximum Humidity 100    
Minimum Humidity 67    
Precipitation  
Precipitation 0.10 in - - ()
Sea Level Pressure  
Sea Level Pressure 30.16 in    
Wind  
Wind Speed 11 mph (NW)    
Max Wind Speed 22 mph    
Max Gust Speed 32 mph    
Visibility 6 miles    
Events Rain , Snow    
Averages and records for this station are not official NWS values.
T = Trace of Precipitation, MM = Missing Value Source: NWS Daily Summary

Daily Weather History Graph

Daily Weather History Graph

Search for Another Location

Airport or City:

Astronomy

Nov. 11, 2019 Rise Set
Actual Time 6:24 AM CST 4:40 PM CST
Civil Twilight 5:56 AM CST 5:08 PM CST
Nautical Twilight 5:25 AM CST 5:39 PM CST
Astronomical Twilight 4:54 AM CST 6:10 PM CST
Moon 4:34 PM CST (11/11) 5:17 AM CST (11/11)
Length of Visible Light 11h 11m
Length of Day
10h 16m
Waxing Gibbous, 99% of the Moon is Illuminated
Nov 11
Waxing Gibbous
Nov 12
Full
Nov 19
Last Quarter
Nov 26
New
Dec 4
First Quarter

Hourly Weather History & Observations

Time (CST) Temp. Windchill Dew Point Humidity Pressure Visibility Wind Dir Wind Speed Gust Speed Precip Events Conditions
12:56 AM 46.0 °F 43.9 °F 39.0 °F 76% 30.04 in 10.0 mi South 4.6 mph - N/A   Clear
1:56 AM 45.0 °F 43.5 °F 39.0 °F 80% 30.03 in 10.0 mi SSE 3.5 mph - N/A   Clear
2:56 AM 44.1 °F 40.8 °F 39.0 °F 82% 30.03 in 10.0 mi South 5.8 mph - N/A   Clear
3:56 AM 46.0 °F 42.5 °F 41.0 °F 83% 30.02 in 10.0 mi SSE 6.9 mph - N/A   Overcast
4:56 AM 45.0 °F 41.8 °F 39.9 °F 82% 30.02 in 10.0 mi South 5.8 mph - N/A   Scattered Clouds
5:56 AM 48.0 °F - 42.1 °F 80% 30.02 in 10.0 mi South 5.8 mph - N/A   Mostly Cloudy
6:56 AM 48.0 °F - 41.0 °F 77% 30.02 in 10.0 mi South 8.1 mph - N/A   Scattered Clouds
7:56 AM 51.1 °F - 43.0 °F 74% 30.03 in 10.0 mi South 6.9 mph - N/A   Overcast
8:56 AM 55.0 °F - 44.1 °F 67% 30.02 in 10.0 mi SW 11.5 mph - N/A   Overcast
9:56 AM 55.0 °F - 44.1 °F 67% 30.02 in 10.0 mi WSW 10.4 mph - N/A   Overcast
10:56 AM 54.0 °F - 44.1 °F 69% 30.03 in 10.0 mi West 12.7 mph - N/A   Overcast
11:10 AM 53.6 °F - 44.6 °F 72% 30.03 in 10.0 mi WNW 13.8 mph - N/A   Overcast
11:56 AM 46.9 °F - 43.0 °F 86% 30.05 in 5.0 mi NW 16.1 mph - N/A   Overcast
12:27 PM 44.6 °F 37.4 °F 42.8 °F 93% 30.05 in 3.0 mi NW 16.1 mph - N/A   Overcast
12:56 PM 44.1 °F 37.1 °F 42.1 °F 93% 30.06 in 3.0 mi NW 15.0 mph - N/A   Overcast
1:09 PM 42.8 °F 35.4 °F 42.8 °F 100% 30.06 in 1.0 mi WNW 15.0 mph - 0.00 in Rain Light Rain
1:56 PM 42.1 °F 34.2 °F 41.0 °F 96% 30.08 in 3.0 mi NW 16.1 mph 23.0 mph 0.00 in Rain Light Rain
2:56 PM 39.0 °F 29.3 °F 37.9 °F 96% 30.11 in 3.0 mi NNW 19.6 mph 25.3 mph 0.04 in Rain Light Rain
3:56 PM 36.0 °F 25.0 °F 35.1 °F 97% 30.13 in 4.0 mi NNW 20.7 mph 27.6 mph 0.03 in Rain Light Rain
4:56 PM 33.1 °F 23.9 °F 32.0 °F 96% 30.16 in 4.0 mi North 12.7 mph - 0.00 in Rain Light Rain
5:56 PM 30.9 °F 18.7 °F 30.0 °F 96% 30.21 in 3.0 mi NNW 19.6 mph 29.9 mph 0.01 in Snow Light Snow
6:08 PM 30.2 °F 17.8 °F 30.2 °F 100% 30.20 in 1.8 mi NW 19.6 mph 24.2 mph 0.00 in Snow Light Snow
6:41 PM 28.4 °F 16.2 °F 28.4 °F 100% 30.22 in 1.8 mi NNW 17.3 mph 26.5 mph 0.01 in Snow Light Snow
6:56 PM 28.0 °F 15.7 °F 27.0 °F 96% 30.24 in 1.5 mi NNW 17.3 mph 25.3 mph 0.01 in Snow Light Snow
7:27 PM 28.4 °F 16.2 °F 26.6 °F 93% 30.25 in 1.0 mi NW 17.3 mph 21.9 mph 0.00 in Snow Light Snow
7:37 PM 26.6 °F 13.1 °F 26.6 °F 100% 30.25 in 1.5 mi NNW 19.6 mph 27.6 mph 0.01 in Snow Light Snow
7:56 PM 27.0 °F 15.2 °F 25.0 °F 92% 30.27 in 1.8 mi NNW 15.0 mph 26.5 mph 0.01 in Snow Light Snow
8:17 PM 26.6 °F 13.8 °F 26.6 °F 100% 30.27 in 3.0 mi NNW 17.3 mph 21.9 mph 0.00 in Snow Light Snow
8:25 PM 26.6 °F 12.7 °F 24.8 °F 93% 30.28 in 5.0 mi NNW 20.7 mph 27.6 mph 0.00 in Snow Light Snow
8:54 PM 26.6 °F 13.1 °F 23.0 °F 86% 30.30 in 8.0 mi NNW 19.6 mph 29.9 mph 0.00 in Snow Light Snow
8:56 PM 26.1 °F 11.6 °F 23.0 °F 88% 30.31 in 8.0 mi NNW 21.9 mph 29.9 mph 0.00 in Snow Light Snow
9:21 PM 26.6 °F 12.4 °F 23.0 °F 86% 30.31 in 5.0 mi NNW 21.9 mph 32.2 mph 0.00 in Snow Light Snow
9:42 PM 26.6 °F 12.7 °F 23.0 °F 86% 30.32 in 4.0 mi NNW 20.7 mph - 0.00 in Snow Light Snow
9:56 PM 25.0 °F 12.2 °F 23.0 °F 92% 30.34 in 4.0 mi NNW 16.1 mph - 0.00 in Snow Light Snow
10:49 PM 24.8 °F 12.4 °F 21.2 °F 86% 30.34 in 9.0 mi NNW 15.0 mph 23.0 mph 0.00 in Snow Light Snow
10:56 PM 25.0 °F 10.9 °F 21.0 °F 85% 30.35 in 9.0 mi North 19.6 mph 29.9 mph 0.00 in Snow Light Snow
11:56 PM 24.1 °F 9.8 °F 18.0 °F 77% 30.37 in 10.0 mi NNW 19.6 mph 27.6 mph 0.00 in   Overcast